| time (UTC) | temp C | wind direction | speed KPH | gust KPH | rain 1hr cm | rain 24hr cm | rain mn cm | humidity % | barometer mb |
| 20260903120058 | 15 | 257 | 11.3 | 19.3 | 0.00 | 0.00 | 0.00 | 100 | |
| 20260903115858 | 15 | 149 | 12.9 | 19.3 | 0.00 | 0.00 | 0.00 | 100 | |
| 20260903115658 | 15 | 209 | 11.3 | 17.7 | 0.00 | 0.00 | 0.00 | 100 | |
| 20260903115449 | 15 | 178 | 11.3 | 19.3 | 0.00 | 0.00 | 0.00 | 100 | |
| 20260903115248 | 15 | 154 | 8.0 | 11.3 | 0.00 | 0.00 | 0.00 | 100 | |
| 20260903115048 | 15 | 232 | 8.0 | 11.3 | 0.00 | 0.00 | 0.00 | 100 | |
| 20260903114848 | 16 | 162 | 8.0 | 11.3 | 0.00 | 0.00 | 0.00 | 100 | |
| 20260903114648 | 16 | 119 | 6.4 | 9.7 | 0.00 | 0.00 | 0.00 | 100 | |
| 20260903114446 | 16 | 235 | 8.0 | 16.1 | 0.00 | 0.00 | 0.00 | 100 | |
| 20260903114246 | 16 | 161 | 12.9 | 19.3 | 0.00 | 0.00 | 0.00 | 100 | |
| 20260903114046 | 16 | 214 | 14.5 | 20.9 | 0.00 | 0.00 | 0.00 | 100 | |
| 20260903113846 | 16 | 215 | 9.7 | 20.9 | 0.00 | 0.00 | 0.00 | 100 | |
| 20260903113646 | 16 | 192 | 8.0 | 16.1 | 0.00 | 0.00 | 0.00 | 100 | |
| 20260903113446 | 16 | 209 | 12.9 | 16.1 | 0.00 | 0.00 | 0.00 | 100 | |
| 20260903113245 | 15 | 225 | 11.3 | 12.9 | 0.00 | 0.00 | 0.00 | 100 | |
| 20260903113045 | 15 | 275 | 6.4 | 12.9 | 0.00 | 0.00 | 0.00 | 100 | |
| 20260903112845 | 15 | 246 | 8.0 | 12.9 | 0.00 | 0.00 | 0.00 | 100 | |
| 20260903112645 | 15 | 214 | 9.7 | 16.1 | 0.00 | 0.00 | 0.00 | 100 | |
| 20260903112444 | 15 | 255 | 8.0 | 14.5 | 0.00 | 0.00 | 0.00 | 100 | |
| 20260903112244 | 15 | 289 | 6.4 | 12.9 | 0.00 | 0.00 | 0.00 | 100 | |
| 20260903112044 | 15 | 282 | 4.8 | 9.7 | 0.00 | 0.00 | 0.00 | 100 | |
| 20260903111844 | 15 | 48 | 4.8 | 9.7 | 0.00 | 0.00 | 0.00 | 100 | |
| 20260903111644 | 15 | 286 | 4.8 | 8.0 | 0.00 | 0.00 | 0.00 | 100 | |
| 20260903111444 | 16 | 277 | 3.2 | 6.4 | 0.00 | 0.00 | 0.00 | 100 | |
| 20260903111244 | 16 | 259 | 4.8 | 11.3 | 0.00 | 0.00 | 0.00 | 100 | |
| 20260903111043 | 16 | 286 | 6.4 | 9.7 | 0.00 | 0.00 | 0.00 | 100 | |
| 20260903110843 | 17 | 311 | 6.4 | 19.3 | 0.00 | 0.00 | 0.00 | 100 | |
| 20260903110643 | 17 | 224 | 6.4 | 19.3 | 0.00 | 0.00 | 0.00 | 100 | |
| 20260903110441 | 17 | 318 | 1.6 | 6.4 | 0.00 | 0.00 | 0.00 | 100 | |
| 20260903110241 | 16 | 229 | 3.2 | 4.8 | 0.00 | 0.00 | 0.00 | 100 | |
| 20260903110041 | 16 | 234 | 4.8 | 14.5 | 0.00 | 0.00 | 0.00 | 100 | |
| 20260903105841 | 16 | 243 | 4.8 | 11.3 | 0.00 | 0.00 | 0.00 | 100 | |
| 20260903105641 | 16 | 230 | 8.0 | 12.9 | 0.00 | 0.00 | 0.00 | 100 | |
| 20260903105441 | 16 | 249 | 8.0 | 12.9 | 0.00 | 0.00 | 0.00 | 100 | |
| 20260903105241 | 16 | 268 | 6.4 | 11.3 | 0.00 | 0.00 | 0.00 | 100 | |
| 20260903105041 | 16 | 341 | 6.4 | 11.3 | 0.00 | 0.00 | 0.00 | 100 | |
| 20260903104841 | 15 | 265 | 6.4 | 11.3 | 0.00 | 0.00 | 0.00 | 100 | |
| 20260903104641 | 16 | 265 | 4.8 | 12.9 | 0.00 | 0.00 | 0.00 | 100 | |
| 20260903104439 | 16 | 269 | 6.4 | 12.9 | 0.00 | 0.00 | 0.00 | 100 | |
| 20260903104239 | 16 | 268 | 6.4 | 16.1 | 0.00 | 0.00 | 0.00 | 100 | |
| 20260903104039 | 16 | 243 | 6.4 | 11.3 | 0.00 | 0.00 | 0.00 | 100 | |
| 20260903103839 | 16 | 266 | 4.8 | 11.3 | 0.00 | 0.00 | 0.00 | 100 | |
| 20260903103639 | 16 | 270 | 6.4 | 14.5 | 0.00 | 0.00 | 0.00 | 100 | |
| 20260903103439 | 16 | 270 | 6.4 | 14.5 | 0.00 | 0.00 | 0.00 | 100 | |
| 20260903103239 | 16 | 271 | 6.4 | 12.9 | 0.00 | 0.00 | 0.00 | 100 | |
| 20260903103039 | 16 | 257 | 4.8 | 12.9 | 0.00 | 0.00 | 0.00 | 100 | |
| 20260903102838 | 15 | 232 | 3.2 | 6.4 | 0.00 | 0.00 | 0.00 | 100 | |
| 20260903102638 | 15 | 260 | 4.8 | 9.7 | 0.00 | 0.00 | 0.00 | 100 | |
| 20260903102436 | 15 | 270 | 6.4 | 11.3 | 0.00 | 0.00 | 0.00 | 100 | |
| 20260903102236 | 15 | 330 | 3.2 | 8.0 | 0.00 | 0.00 | 0.00 | 100 | |
| 20260903102036 | 15 | 243 | 3.2 | 8.0 | 0.00 | 0.00 | 0.00 | 100 | |
| 20260903101836 | 15 | 237 | 4.8 | 9.7 | 0.00 | 0.00 | 0.00 | 100 | |
| 20260903101636 | 15 | 312 | 4.8 | 9.7 | 0.00 | 0.00 | 0.00 | 100 | |
| 20260903101436 | 15 | 344 | 3.2 | 6.4 | 0.00 | 0.00 | 0.00 | 100 | |
| 20260903101236 | 15 | 294 | 3.2 | 6.4 | 0.00 | 0.00 | 0.00 | 100 | |
| 20260903101037 | 15 | 357 | 3.2 | 6.4 | 0.00 | 0.00 | 0.00 | 100 | |
| 20260903100836 | 15 | 5 | 3.2 | 6.4 | 0.00 | 0.00 | 0.00 | 100 | |
| 20260903100636 | 15 | 282 | 3.2 | 6.4 | 0.00 | 0.00 | 0.00 | 100 | |
| 20260903100434 | 15 | 186 | 1.6 | 3.2 | 0.00 | 0.00 | 0.00 | 100 | |
| 20260903100234 | 15 | 193 | 1.6 | 6.4 | 0.00 | 0.00 | 0.00 | 100 | |
| 20260903100034 | 15 | 342 | 3.2 | 6.4 | 0.00 | 0.00 | 0.00 | 100 | |
| 20260903095834 | 15 | 3 | 6.4 | 11.3 | 0.00 | 0.00 | 0.00 | 100 | |
| 20260903095634 | 15 | 353 | 3.2 | 11.3 | 0.00 | 0.00 | 0.00 | 100 | |
| 20260903095434 | 15 | 341 | 4.8 | 9.7 | 0.00 | 0.00 | 0.00 | 100 | |
| 20260903095234 | 15 | 343 | 1.6 | 9.7 | 0.00 | 0.00 | 0.00 | 100 | |
| 20260903095034 | 15 | 2 | 4.8 | 9.7 | 0.00 | 0.00 | 0.00 | 100 | |
| 20260903094834 | 15 | 18 | 4.8 | 9.7 | 0.00 | 0.00 | 0.00 | 100 | |
| 20260903094634 | 15 | 343 | 3.2 | 8.0 | 0.00 | 0.00 | 0.00 | 100 | |
| 20260903094432 | 15 | 278 | 4.8 | 11.3 | 0.00 | 0.00 | 0.00 | 100 | |
| 20260903094232 | 15 | 328 | 4.8 | 11.3 | 0.00 | 0.00 | 0.00 | 100 | |
| 20260903094032 | 15 | 347 | 4.8 | 9.7 | 0.00 | 0.00 | 0.00 | 100 | |
| 20260903093832 | 15 | 6 | 6.4 | 11.3 | 0.00 | 0.00 | 0.00 | 100 | |
| 20260903093632 | 15 | 348 | 3.2 | 8.0 | 0.00 | 0.00 | 0.00 | 100 | |
| 20260903093432 | 15 | 317 | 3.2 | 8.0 | 0.00 | 0.00 | 0.00 | 100 | |
| 20260903093232 | 15 | 346 | 3.2 | 6.4 | 0.00 | 0.00 | 0.00 | 100 | |
| 20260903093032 | 15 | 0 | 1.6 | 6.4 | 0.00 | 0.00 | 0.00 | 100 | |
| 20260903092840 | 15 | 352 | 4.8 | 8.0 | 0.00 | 0.00 | 0.00 | 100 | |
| 20260903092632 | 15 | 342 | 4.8 | 9.7 | 0.00 | 0.00 | 0.00 | 100 | |
| 20260903092430 | 15 | 347 | 3.2 | 8.0 | 0.00 | 0.00 | 0.00 | 100 | |
| 20260903092230 | 15 | 286 | 6.4 | 11.3 | 0.00 | 0.00 | 0.00 | 100 | |
| 20260903092030 | 15 | 325 | 6.4 | 11.3 | 0.00 | 0.00 | 0.00 | 100 | |
| 20260903091823 | 15 | 333 | 6.4 | 12.9 | 0.00 | 0.00 | 0.00 | 100 | |
| 20260903091623 | 15 | 325 | 3.2 | 11.3 | 0.00 | 0.00 | 0.00 | 100 | |
| 20260903091423 | 15 | 329 | 4.8 | 11.3 | 0.00 | 0.00 | 0.00 | 100 | |
| 20260903091223 | 15 | 340 | 4.8 | 9.7 | 0.00 | 0.00 | 0.00 | 100 | |
| 20260903091023 | 15 | 353 | 6.4 | 9.7 | 0.00 | 0.00 | 0.00 | 100 | |
| 20260903090823 | 15 | 10 | 4.8 | 6.4 | 0.00 | 0.00 | 0.00 | 100 | |
| 20260903090623 | 15 | 298 | 3.2 | 8.0 | 0.00 | 0.00 | 0.00 | 100 | |
| 20260903090420 | 15 | 332 | 6.4 | 9.7 | 0.00 | 0.00 | 0.00 | 100 | |
| 20260903090220 | 15 | 349 | 6.4 | 11.3 | 0.00 | 0.00 | 0.00 | 100 | |
| 20260903090021 | 15 | 36 | 4.8 | 9.7 | 0.00 | 0.00 | 0.00 | 100 |